Powrót do katalogu

STARLINK-34736

AktywnyŁącznośćSSO
NORAD 64846·PAYLOAD·🇺🇸 United States

Wystrzelony Jul 19, 2025 z Vandenberg Space Force Base

Loading…

Następne Przeloty (najbliższe 24 godziny)

TLE

ŚwieżeSource: CelesTrak SupGP

Epoka: Sep 14, 2026, 20:42 UTC

1 64846C 25152E   26257.86298611 -.00003040  00000+0 -94371-4 0  2579
2 64846  97.2842 108.5154 0001643  91.6120 193.0542 15.33434592    13

Śledź STARLINK-34736 w czasie rzeczywistym z AllMySat

Download on the App Store